Home > Weather > Rennes > Past weeks

Flag for France Past Weather in Rennes, Brittany, France — Yesterday and Last 2 Weeks

Now
66 °F

Mostly cloudy.


Feels Like: 66 °F
Forecast: 59 / 67 °F
Wind: 12 mph from Southwest

Location: Rennes Airport

Current Time: Jun 30, 2016 at 5:52:07 PM

Latest Report: Jun 30, 2016 at 5:00 PM


Visibility: N/A

Pressure: 29.98 "Hg

Humidity: 78%

Dew Point: 59 °F

Location of RennesLocation

Past Weather in Rennes — Graph

°F

Rennes Temperature Yesterday

Maximum temperature yesterday: 68 °F (at 2:30 PM)
Minimum temperature yesterday: 50 °F (at 5:00 AM)
Average temperature yesterday: 59 °F

High & Low Weather Summary for the Past Weeks

 TemperatureHumidityPressure
High81 °F (Jun 22, 3:30 PM)100% (Jun 16, 2:00 AM)30.36 "Hg (Jun 16, 2:00 AM)
Low48 °F (Jun 18, 2:00 AM)46% (Jun 16, 3:30 PM)29.53 "Hg (Jun 15, 4:00 PM)
Average62 °F81%30.04 "Hg
* Reported Jun 15 4:00 PM — Jun 30 4:30 PM, Rennes, Weather by CustomWeather, © 2016

Note: Actual official high and low records may vary slightly from our data, if they occured in-between our weather recording intervals... More about our weather records

Advertising

Rennes Weather History for the Previous 24 Hours

Scroll right to see more
 ConditionsComfort  
Time TempWeatherWind HumidityBarometerVisibility
4:30 PM
Thu, Jun 30
68 °FMostly cloudy.10 mph73%29.98 "HgN/A
4:00 PM66 °FMostly cloudy.12 mph78%29.98 "HgN/A
3:30 PM68 °FMostly cloudy.9 mph73%29.98 "HgN/A
3:00 PM68 °FMostly cloudy.13 mph73%29.98 "HgN/A
2:30 PM68 °FMostly cloudy.9 mph73%29.95 "HgN/A
2:00 PM68 °FPartly sunny.13 mph73%29.95 "HgN/A
1:30 PM64 °FMostly cloudy.13 mph83%29.98 "HgN/A
1:00 PM66 °FCloudy.10 mph78%29.95 "HgN/A
12:30 PM66 °FBroken clouds.10 mph78%29.95 "HgN/A
12:00 PM66 °FMore clouds than sun.12 mph78%29.95 "HgN/A
11:30 AM64 °FMore clouds than sun.9 mph83%29.95 "HgN/A
11:00 AM64 °FPartly sunny.9 mph88%29.95 "HgN/A
10:30 AM66 °FMostly cloudy.10 mph78%29.95 "HgN/A
10:00 AM64 °FOvercast.12 mph83%29.92 "HgN/A
9:30 AM64 °FOvercast.12 mph83%29.92 "HgN/A
9:00 AM63 °FOvercast.10 mph88%29.92 "HgN/A
8:30 AM63 °FOvercast.8 mph88%29.92 "HgN/A
8:00 AM63 °FOvercast.8 mph88%29.92 "HgN/A
7:30 AM63 °FMostly cloudy.8 mph94%29.89 "HgN/A
7:00 AM63 °FOvercast.6 mph94%29.89 "HgN/A
6:30 AM61 °FLow clouds.5 mph100%29.89 "HgN/A
6:00 AM61 °FLow clouds.7 mph94%29.89 "HgN/A
5:30 AM61 °FLow clouds.8 mph94%29.89 "HgN/A
5:00 AM61 °FLow clouds.8 mph94%29.89 "HgN/A
4:30 AM61 °FLow clouds.9 mph94%29.89 "HgN/A
4:00 AM61 °FMostly cloudy.7 mph94%29.89 "HgN/A
3:30 AM61 °FLow clouds.8 mph94%29.89 "HgN/A
3:00 AM61 °FLow clouds.9 mph94%29.89 "Hg6 mi
2:30 AM61 °FLow clouds.8 mph94%29.89 "HgN/A
2:00 AM61 °FMostly cloudy.9 mph94%29.92 "HgN/A
1:30 AM59 °FDrizzle. Low clouds.7 mph100%29.92 "Hg5 mi
1:00 AM59 °FLight rain. Low clouds.9 mph100%29.92 "Hg4 mi
12:30 AM61 °FLow clouds.10 mph94%29.92 "Hg6 mi
12:00 AM59 °FMostly cloudy.10 mph100%29.92 "Hg4 mi
11:30 PM
Wed, Jun 29
59 °FMostly cloudy.8 mph100%29.92 "Hg6 mi
11:00 PM61 °FLight rain. Mostly cloudy.9 mph88%29.92 "Hg4 mi
10:30 PM61 °FMore clouds than sun.12 mph88%29.92 "HgN/A
10:00 PM61 °FMore clouds than sun.10 mph88%29.92 "HgN/A
9:30 PM61 °FMostly cloudy.10 mph83%29.92 "HgN/A
9:00 PM63 °FMostly cloudy.12 mph77%29.92 "HgN/A
8:30 PM63 °FPartly sunny.12 mph77%29.92 "HgN/A
8:00 PM63 °FMostly cloudy.9 mph77%29.92 "HgN/A
7:30 PM63 °FMostly cloudy.13 mph73%29.92 "HgN/A
7:00 PM63 °FMostly cloudy.13 mph73%29.92 "HgN/A
6:30 PM63 °FBroken clouds.10 mph73%29.92 "HgN/A
6:00 PM64 °FPartly sunny.7 mph68%29.92 "HgN/A
5:30 PM63 °FPartly sunny.12 mph68%29.92 "HgN/A
5:00 PM63 °FPartly sunny.12 mph68%29.95 "HgN/A
Weather by CustomWeather, © 2016

See weather overviewHow to use our weather pages